Search for airport 
image banner adimage banner ad
image banner ad

SBAR - Santa Maria

Located in Aracaju, Brazil

ICAO - SBAR, IATA - AJU

Data provided by Airmate  

General information

Coordinates: S10°59'7" W37°4'24"
Elevation is 22 feet MSL.
Magnetic variation is -23° East
View others Airports in Sergipe

Operational data

Open for public use
Current time UTC:
Current local time:
Weather
METAR: SBAR 280300Z 04008KT 9999 FEW017 26/21 Q1009
TAF: TAF SBAR 272100Z 2800/2824 06005KT 9999 FEW015 TN25/2808Z TX28/2818Z BECMG 2812/2814 08015KT FEW020 BECMG 2820/2822 12010KT SCT018 RMK PGY
View NOTAMs / SUP AIP / TFR affecting this airport [VIEW]
Communications frequencies: [VIEW]

Runways:

RWY identifierQFULength (ft)Width (ft)SurfaceLDA (ft)
1292°7218148
30272°7218148

Airport contact information

Address: Aracaju Brazil

Other aviation service providers

Aviation club (not for profit)

Aeroclube De Sergipe

Aeroclube De Sergipe
+55793241-3646

Satellite view of SBAR